Weather History for Fairbanks, AK

Change the Weather History Date:

Thursday, October 6, 2011

  Actual Average Record
Temperature  
Mean Temperature 41 °F 33 °F  
Max Temperature 52 °F 41 °F 64 °F (1969)
Min Temperature 29 °F 25 °F 2 °F (1919)
Degree Days  
Heating Degree Days 24 32  
Month to date heating degree days 151 183  
Since 1 July heating degree days 966 1177  
Cooling Degree Days 0 0  
Month to date cooling degree days 0 0  
Year to date cooling degree days 39 61  
Moisture  
Dew Point 27 °F    
Average Humidity 63    
Maximum Humidity 82    
Minimum Humidity 33    
Precipitation  
Precipitation 0.00 in 0.03 in 0.39 in (1937)
Month to date precipitation T 0.17  
Year to date precipitation 7.81 8.84  
Snow  
Snow 0.00 in 0.30 in 2.70 in (1970)
Month to date snowfall T 1.3  
Since 1 July snowfall T 3.1  
Since 1 September snowfall T 3.1  
Snow Depth 0.00 in    
Sea Level Pressure  
Sea Level Pressure 29.41 in    
Wind  
Wind Speed 3 mph (NE)    
Max Wind Speed 6 mph    
Max Gust Speed -    
Visibility 10 miles    
Events      
T = Trace of Precipitation, MM = Missing Value Source: NWS Daily Summary

Daily Weather History Graph

Daily Weather History Graph

Search for Another Location

Airport:

Trip Planner

Search our weather history database for the weather conditions in past years. The results will help you decide how hot, cold, wet, or windy it might be!

Date:

Astronomy

Oct. 06, 2011 Rise Set
Actual Time 8:15 AM AKDT 7:01 PM AKDT
Civil Twilight 7:27 AM AKDT 7:50 PM AKDT
Nautical Twilight 6:29 AM AKDT 8:47 PM AKDT
Astronomical Twilight 5:29 AM AKDT 9:47 PM AKDT
Moon 5:47 PM AKDT (10/6) 1:27 AM AKDT (10/6)
Length of Visible Light 12h 23m
Length of Day
10h 45m
Waxing Gibbous, 76% of the Moon is Illuminated
Oct 6
Waxing Gibbous
Oct 11
Full
Oct 19
Last Quarter
Oct 26
New
Nov 2
First Quarter

Hourly Weather History & Observations

Time (AKDT) Temp. Windchill Dew Point Humidity Pressure Visibility Wind Dir Wind Speed Gust Speed Precip Events Conditions
12:53 AM 36.0 °F 33.3 °F 28.9 °F 76% 29.39 in 10.0 mi NE 3.5 mph - N/A   Mostly Cloudy
1:53 AM 35.1 °F 32.2 °F 28.0 °F 76% 29.38 in 10.0 mi NNE 3.5 mph - N/A   Mostly Cloudy
2:53 AM 37.0 °F 33.3 °F 28.0 °F 70% 29.38 in 10.0 mi NE 4.6 mph - N/A   Mostly Cloudy
3:53 AM 34.0 °F - 28.0 °F 79% 29.37 in 10.0 mi Calm Calm - N/A   Mostly Cloudy
4:53 AM 32.0 °F - 26.1 °F 79% 29.37 in 10.0 mi Calm Calm - N/A   Mostly Cloudy
5:53 AM 30.9 °F - 26.1 °F 82% 29.37 in 10.0 mi Calm Calm - N/A   Mostly Cloudy
6:53 AM 32.0 °F 28.7 °F 25.0 °F 75% 29.37 in 10.0 mi NE 3.5 mph - N/A   Mostly Cloudy
7:53 AM 30.9 °F - 24.1 °F 76% 29.38 in 10.0 mi Calm Calm - N/A   Mostly Cloudy
8:53 AM 30.9 °F 26.2 °F 25.0 °F 79% 29.38 in 10.0 mi NNE 4.6 mph - N/A   Mostly Cloudy
9:53 AM 34.0 °F 31.0 °F 26.1 °F 73% 29.39 in 10.0 mi NE 3.5 mph - N/A   Mostly Cloudy
10:53 AM 39.0 °F 36.8 °F 27.0 °F 62% 29.39 in 10.0 mi NE 3.5 mph - N/A   Mostly Cloudy
11:53 AM 39.9 °F 36.7 °F 28.0 °F 63% 29.39 in 10.0 mi NE 4.6 mph - N/A   Mostly Cloudy
12:53 PM 45.0 °F 42.6 °F 28.0 °F 52% 29.39 in 10.0 mi NNE 4.6 mph - N/A   Mostly Cloudy
1:53 PM 50.0 °F - 25.0 °F 38% 29.40 in 10.0 mi ENE 5.8 mph - N/A   Mostly Cloudy
2:53 PM 51.1 °F - 23.0 °F 33% 29.39 in 10.0 mi East 4.6 mph - N/A   Mostly Cloudy
3:53 PM 51.1 °F - 23.0 °F 33% 29.40 in 10.0 mi East 4.6 mph - N/A   Mostly Cloudy
4:53 PM 52.0 °F - 24.1 °F 34% 29.40 in 10.0 mi Calm Calm - N/A   Mostly Cloudy
5:53 PM 50.0 °F - 25.0 °F 38% 29.41 in 10.0 mi Calm Calm - N/A   Mostly Cloudy
6:53 PM 45.0 °F - 27.0 °F 49% 29.43 in 10.0 mi Calm Calm - N/A   Mostly Cloudy
7:53 PM 42.1 °F - 28.0 °F 58% 29.44 in 10.0 mi Calm Calm - N/A   Mostly Cloudy
8:53 PM 41.0 °F - 30.0 °F 65% 29.46 in 10.0 mi Calm Calm - N/A   Mostly Cloudy
9:53 PM 39.9 °F 37.8 °F 32.0 °F 73% 29.47 in 10.0 mi West 3.5 mph - N/A   Mostly Cloudy
10:53 PM 39.9 °F - 30.0 °F 68% 29.48 in 10.0 mi Calm Calm - N/A   Overcast
11:53 PM 37.0 °F - 30.0 °F 76% 29.50 in 10.0 mi Calm Calm - N/A   Mostly Cloudy